Theta_e
298 296 297 296 295 296 297 298 300 301 303 305 306 306 307 308 308 308 308 308 309 308 309 308 307 305 307 309 306 304 303 304 303 304 305 307 307 308 307 308 309 309 309 308 307 305 305 304 305 304 306 306 305 304 304 302 300 298 296 295 293 292 291 292 292 292 289 288 289 289 289 289 289 288 287 287 286 286 287 287 287 287 287 287 287
295 294 293 293 294 295 296 297 299 300 301 304 305 306 306 307 307 308 307 307 309 309 309 309 309 310 308 306 303 302 301 302 301 301 301 302 304 304 305 306 307 306 307 306 304 303 302 302 302 301 303 304 304 303 303 300 299 297 296 293 294 292 290 292 292 293 290 288 287 287 287 290 291 289 287 286 286 286 286 286 286 286 286 286 287
295 294 294 293 293 294 296 297 298 301 302 303 305 305 306 306 307 308 306 308 308 309 308 309 306 304 303 301 303 298 296 296 298 297 297 298 298 300 303 305 305 303 305 304 303 302 302 301 300 300 301 299 300 300 300 299 298 296 296 293 291 292 291 291 291 293 290 290 290 287 284 285 287 287 288 287 286 285 286 286 286 285 285 286 286
296 295 293 293 293 294 295 296 297 299 301 302 304 305 306 306 307 308 307 307 307 307 306 303 299 298 298 298 296 296 295 294 295 295 296 296 296 297 299 302 303 301 301 302 301 301 301 299 298 297 297 300 301 300 299 298 297 296 296 294 293 289 291 290 290 290 290 289 288 290 286 287 284 284 285 286 286 285 285 285 285 285 285 285 286
296 295 293 292 292 293 294 296 297 298 300 302 303 304 305 306 307 307 306 306 306 304 300 298 297 295 295 295 296 295 295 295 295 294 294 295 295 296 296 298 299 298 298 299 299 299 299 298 297 296 297 299 301 300 299 298 298 297 296 294 294 292 290 289 289 289 292 290 292 286 286 286 288 286 285 285 287 286 284 285 285 284 285 285 285
296 296 295 293 293 294 294 295 296 298 299 301 303 305 306 306 306 306 306 305 305 302 298 298 298 296 296 298 299 298 296 296 298 299 295 297 297 293 293 295 296 296 296 297 298 296 296 295 295 295 296 297 300 300 299 298 297 296 296 296 295 294 293 289 288 287 287 288 288 291 294 294 287 285 285 283 285 286 286 284 283 284 284 284 284
294 294 294 293 293 293 293 294 295 297 299 301 303 304 305 305 306 306 306 305 304 300 299 299 298 299 303 304 304 303 301 299 299 300 300 294 292 292 292 293 294 295 295 294 295 294 294 293 293 295 295 296 297 297 296 296 296 296 296 297 296 295 294 292 289 287 286 286 286 287 287 286 290 285 283 284 281 284 286 284 283 283 283 284 284
295 295 294 294 293 293 293 294 295 297 298 301 302 303 304 304 305 305 305 303 302 301 300 300 302 302 302 303 304 305 305 303 299 296 293 291 291 291 291 291 292 293 293 292 292 292 291 291 291 293 294 294 294 296 296 296 295 294 295 296 295 295 296 292 289 287 289 284 285 285 284 284 286 287 288 287 286 282 282 284 284 282 283 283 283
294 295 294 293 293 293 294 294 295 296 298 300 302 303 304 304 304 304 304 302 301 300 300 300 301 301 302 302 301 301 299 297 294 291 290 291 290 289 290 289 289 290 291 291 290 290 289 289 290 291 292 291 293 294 294 293 294 292 291 292 293 294 295 292 288 287 287 285 283 283 285 284 284 284 283 286 285 284 282 283 283 283 283 283 283
291 292 293 293 293 293 293 294 294 295 298 300 302 303 303 303 303 303 303 302 300 299 300 301 302 301 302 302 301 296 292 290 290 289 289 290 289 289 289 289 288 288 288 289 288 288 288 288 289 291 291 291 291 292 291 291 292 292 292 293 293 292 290 290 290 288 288 286 287 286 286 283 285 284 284 283 283 287 283 283 284 284 282 283 283
290 290 290 290 290 291 292 293 294 295 297 300 301 302 303 303 303 302 302 301 300 300 299 299 299 300 301 302 300 295 291 290 289 288 288 289 289 287 288 288 288 288 287 287 287 287 287 287 289 289 289 290 289 290 290 291 290 291 291 291 290 289 288 289 288 287 287 286 286 286 285 285 285 284 283 285 285 282 282 281 281 282 282 283 283
288 288 289 289 290 290 291 292 293 294 296 299 301 302 302 303 303 302 302 302 300 299 299 300 299 299 300 300 299 296 292 291 292 292 291 290 291 288 287 287 286 286 286 286 286 285 286 286 287 287 288 288 288 289 289 289 289 289 288 289 288 288 288 287 287 286 286 286 286 285 285 285 284 285 285 285 285 284 284 282 282 281 281 282 283
288 289 289 288 290 290 290 291 292 293 295 298 300 301 302 303 303 302 301 300 299 299 299 299 299 299 299 299 298 294 294 293 293 292 291 291 290 290 286 287 286 286 285 285 285 285 285 285 286 286 286 287 287 287 287 287 287 287 287 287 287 286 286 287 285 286 285 285 284 283 284 285 284 283 284 284 284 284 284 281 281 281 281 281 282
290 290 289 289 289 290 290 291 292 293 295 297 299 300 301 302 302 302 301 299 298 298 298 298 298 298 299 298 297 294 294 294 293 292 291 292 291 292 289 289 286 287 286 286 285 285 285 286 286 286 286 286 286 287 286 286 287 286 286 286 286 286 286 286 286 285 285 285 284 284 284 284 283 283 284 284 283 283 281 281 280 280 279 280 281
290 290 291 291 290 289 290 291 292 293 294 296 298 299 301 301 301 301 301 298 297 297 298 298 297 297 297 297 296 293 294 293 292 292 290 291 291 291 291 290 290 289 288 287 285 285 285 285 285 285 284 285 285 285 285 285 286 285 285 285 284 284 285 284 284 284 283 283 284 284 283 283 283 283 283 284 284 284 284 281 280 278 278 280 279
289 289 289 289 289 289 290 290 291 292 293 295 297 299 299 300 301 301 301 298 297 296 296 297 297 297 297 296 294 293 293 292 292 291 291 291 290 290 290 289 290 290 288 286 284 285 284 284 284 284 284 284 284 284 284 284 284 284 283 283 283 283 284 284 283 284 283 283 283 283 283 283 283 283 283 283 283 283 283 283 282 281 280 279 278
289 289 289 289 288 288 289 290 291 292 293 294 296 298 299 299 300 300 300 298 296 296 296 296 296 296 295 295 294 292 292 291 291 290 290 290 289 290 289 289 289 288 286 286 284 284 284 284 283 283 283 284 284 284 284 284 284 284 283 283 282 282 283 283 282 283 282 282 282 282 283 282 282 282 282 282 282 282 282 283 282 282 282 279 278
290 288 288 288 288 288 289 290 291 292 293 293 295 297 298 299 299 299 300 297 296 296 296 295 295 294 294 293 293 292 292 291 291 290 289 288 287 287 287 286 286 286 286 285 284 283 283 283 283 283 283 283 283 283 283 283 283 283 283 282 282 282 282 282 282 281 281 281 281 281 282 282 281 282 282 282 282 282 282 282 282 282 282 280 279
289 289 288 287 287 288 288 289 290 291 292 293 294 296 297 297 298 299 299 298 296 296 295 295 294 294 293 292 291 291 291 291 290 290 288 287 286 285 285 286 285 284 284 284 283 282 282 282 282 282 282 282 282 282 282 282 282 281 281 281 281 282 282 281 281 281 281 281 281 280 281 281 281 281 280 281 280 281 281 282 282 282 282 281 280
288 288 288 288 287 287 288 289 289 290 291 292 293 294 295 296 296 297 298 297 295 294 294 293 292 293 291 290 290 290 290 290 289 288 286 285 285 284 284 284 284 283 284 283 283 282 282 281 281 281 281 281 281 281 281 281 281 281 281 281 281 281 281 280 280 281 280 281 281 280 280 280 279 280 280 280 280 280 280 281 281 281 281 280 280
288 288 288 287 287 287 287 288 289 289 290 290 292 293 294 294 295 295 295 294 294 294 293 293 291 291 290 289 289 289 288 289 288 287 286 285 284 284 284 284 283 283 283 282 282 282 281 281 281 281 281 280 280 280 280 280 280 280 280 280 280 280 280 280 280 279 280 280 280 279 279 278 279 279 279 279 280 280 279 280 280 280 280 280 279
287 287 287 287 286 286 286 287 287 288 288 289 290 291 292 293 294 294 294 293 293 292 293 292 290 290 289 289 288 288 288 288 287 286 285 284 283 283 283 282 282 282 282 282 282 281 281 281 281 280 280 280 280 280 280 280 280 280 279 279 279 280 279 279 279 279 279 279 279 279 278 277 278 278 278 279 279 279 279 279 279 279 279 279 280
288 287 286 286 286 286 286 287 287 288 288 288 289 290 291 292 292 293 293 293 293 292 291 291 290 289 289 288 287 286 286 285 285 284 284 283 283 282 282 282 282 281 282 282 281 281 280 280 280 280 280 280 280 279 279 280 280 280 279 279 279 279 279 279 279 278 278 278 278 278 277 277 277 278 278 278 278 278 278 278 278 278 278 278 279
287 286 285 286 286 285 286 286 286 287 287 288 289 289 290 291 292 292 292 292 291 291 290 289 289 288 288 287 286 285 284 284 284 283 283 283 282 281 281 281 281 281 281 281 281 280 280 280 280 279 279 279 279 279 279 280 279 280 279 279 279 279 280 280 279 279 278 278 278 277 277 277 277 278 277 277 277 277 277 277 277 277 277 277 278
286 286 286 285 285 285 286 286 287 287 287 288 288 289 289 290 291 291 292 292 291 290 289 289 288 288 287 286 285 284 284 283 283 283 282 282 281 280 281 281 280 280 280 280 280 280 279 279 279 279 279 279 279 279 279 279 279 280 280 279 279 279 279 279 279 279 279 278 278 278 277 277 277 277 277 277 277 276 276 276 276 277 276 277 276
286 286 286 286 286 286 286 286 286 287 287 288 288 288 289 289 290 291 291 291 290 289 289 288 288 287 286 285 285 284 284 283 283 283 282 281 281 280 280 280 281 280 280 280 280 279 280 279 279 279 279 279 279 279 279 279 279 279 279 279 279 279 279 279 279 279 279 278 278 278 277 277 277 278 277 277 276 276 276 275 275 276 276 276 275
287 288 287 285 285 285 286 286 286 287 287 287 288 288 288 289 289 289 290 290 289 288 288 288 287 287 286 285 285 284 284 283 283 283 282 281 280 280 280 280 280 280 280 280 280 279 280 279 279 279 279 279 279 279 279 279 279 279 279 279 279 278 278 278 278 278 279 278 278 278 277 277 277 278 277 277 276 276 275 275 275 275 275 275 275
286 286 286 286 287 286 286 286 286 286 287 287 287 288 288 288 288 289 289 289 288 287 288 288 287 287 287 286 285 284 284 283 283 282 281 280 280 280 280 280 280 280 280 280 279 279 279 279 279 279 279 279 279 279 279 279 279 279 279 279 279 278 277 277 277 277 278 277 277 277 277 277 277 278 278 277 277 276 276 275 276 275 275 274 274
288 288 287 286 287 288 287 286 286 286 286 286 287 287 287 288 288 288 288 288 288 287 287 287 287 287 287 286 285 284 284 283 282 282 281 280 280 280 280 280 280 280 280 280 280 279 279 279 279 279 279 279 279 279 279 279 278 278 279 279 278 278 278 277 277 276 277 277 277 277 277 277 277 278 279 278 277 277 276 275 275 275 274 274 274
293 293 293 290 289 289 288 287 286 286 286 286 286 287 287 287 288 288 287 288 287 287 287 287 287 287 287 286 285 284 283 283 282 281 281 280 280 280 280 280 280 280 280 280 279 279 279 279 279 279 279 279 279 279 280 282 281 279 279 278 278 278 278 277 276 276 275 276 276 277 277 278 278 279 279 280 280 279 279 277 277 275 274 273 273
294 293 294 294 291 288 287 287 287 286 286 286 287 287 287 287 287 287 287 287 287 286 286 286 287 286 286 285 284 284 283 282 282 282 281 280 280 280 280 280 280 280 279 279 279 279 279 279 279 279 279 279 279 279 282 284 284 283 279 278 278 278 278 277 277 276 276 275 276 276 276 277 279 279 279 280 281 281 281 280 280 278 277 274 272
295 295 294 292 292 291 289 288 288 287 287 286 286 286 286 286 287 287 287 286 286 286 286 286 286 286 285 284 284 283 283 282 282 281 281 281 281 280 280 280 280 279 279 279 279 279 279 279 279 279 279 279 279 282 285 285 285 284 282 279 279 278 278 277 277 277 277 276 276 276 276 276 277 278 278 279 280 282 282 282 282 281 280 279 278
295 295 293 292 293 294 292 290 289 288 287 287 287 286 286 287 286 287 286 285 286 286 286 286 285 285 284 284 283 283 282 282 282 281 281 281 280 280 280 279 279 279 279 279 279 279 279 279 279 279 279 279 279 284 285 286 285 285 284 280 278 278 278 278 277 277 276 276 276 276 276 276 276 278 279 278 278 278 281 282 283 283 282 282 281
294 292 292 294 294 292 290 289 289 289 288 288 287 287 287 287 287 286 286 285 285 285 285 285 284 284 283 283 282 282 282 282 282 282 281 280 280 280 281 281 280 279 279 279 279 279 279 278 279 278 278 278 278 284 286 286 286 286 285 282 278 278 279 278 277 277 276 276 276 276 276 276 276 276 277 277 277 277 277 278 279 281 281 282 283
292 292 292 292 292 290 289 288 288 287 286 286 286 286 286 285 285 285 285 284 284 284 284 284 284 283 282 282 282 282 281 282 282 282 281 280 280 281 281 280 280 279 279 279 279 278 278 279 279 279 278 278 278 284 286 286 286 287 287 285 280 279 279 278 278 277 276 277 277 276 276 277 277 276 276 277 276 277 276 276 275 275 276 278 280
292 292 292 291 290 289 289 290 288 285 285 286 286 285 285 284 285 285 284 284 283 283 283 283 283 282 282 282 281 281 281 281 281 281 281 281 280 281 280 280 280 279 279 279 279 279 279 279 279 279 278 278 278 284 286 286 287 287 287 285 282 280 279 278 277 277 277 277 277 276 276 276 277 277 278 280 279 277 276 274 273 273 273 274 274
290 288 289 288 287 287 287 286 284 284 284 284 284 284 284 283 283 283 283 282 282 282 282 282 282 281 281 281 282 281 281 281 281 281 281 280 280 280 280 280 279 279 279 279 279 279 279 279 279 278 278 278 278 283 285 286 286 287 287 284 284 282 280 278 278 278 277 277 276 276 276 276 276 276 278 280 281 280 275 273 272 271 271 271 271
285 284 284 284 284 284 284 284 283 282 282 283 283 283 283 282 282 281 282 281 282 282 281 281 281 281 281 281 282 281 280 280 280 280 280 281 280 280 279 280 279 279 279 279 279 278 278 279 278 278 278 278 278 281 285 286 286 286 286 284 283 282 281 280 279 279 278 277 277 278 277 276 276 276 278 280 281 281 277 274 272 271 271 271 272
282 283 283 282 282 282 281 281 282 281 281 282 282 282 282 281 280 281 281 281 281 281 281 281 280 280 281 281 281 281 281 280 280 280 280 280 280 280 279 279 280 280 279 279 278 278 278 278 278 278 280 279 279 280 284 285 285 286 286 284 283 282 281 280 279 279 279 277 276 277 278 277 276 276 278 279 280 280 278 276 274 273 272 272 274
281 281 281 281 281 281 281 281 281 280 281 281 282 282 281 280 280 280 280 280 280 281 281 281 280 280 280 280 281 281 280 280 280 281 281 281 280 279 278 279 279 279 279 278 278 278 278 278 278 278 278 279 278 278 280 284 284 285 286 284 283 282 280 280 280 280 279 279 277 275 277 279 280 280 280 280 281 281 279 277 276 274 273 273 276
281 282 282 280 280 281 281 280 280 280 281 281 281 281 280 279 279 280 279 280 280 280 280 280 280 279 279 280 280 281 280 281 281 281 281 280 280 279 279 279 278 278 278 278 278 278 278 277 277 277 277 278 278 277 278 282 284 284 285 285 283 282 281 281 280 280 279 279 278 277 275 277 280 281 282 282 282 282 282 279 277 276 276 277 278
281 281 280 280 279 279 279 279 279 280 280 281 281 280 279 279 279 279 279 279 279 280 279 279 279 279 279 279 279 279 280 280 280 280 279 279 280 279 279 279 279 278 278 277 277 277 277 277 276 276 276 276 277 279 277 280 282 283 284 285 283 282 282 280 279 279 279 278 278 278 276 277 279 281 281 282 283 283 283 282 281 282 282 282 279
281 280 280 280 279 279 278 278 278 279 280 280 279 278 278 278 279 278 279 279 279 279 279 278 278 278 278 278 279 279 279 280 280 280 280 279 279 279 279 279 278 278 278 277 277 276 276 276 275 275 275 275 274 275 279 277 280 282 283 284 284 283 284 282 279 278 279 278 278 276 277 278 280 281 281 282 283 283 283 282 284 284 284 284 283
279 280 279 279 279 278 278 278 278 278 278 279 279 278 277 277 277 278 278 279 279 278 278 278 278 278 278 278 279 279 280 281 281 281 280 279 279 279 279 278 278 278 277 277 276 275 275 275 274 275 274 273 273 272 275 278 277 279 281 282 283 283 284 281 280 279 279 278 277 276 276 279 280 281 281 282 282 282 281 283 283 283 283 282 281
280 279 278 278 279 278 278 277 277 277 276 277 277 279 277 277 277 278 278 278 278 278 278 278 277 277 278 278 279 280 280 281 281 281 280 279 278 278 277 277 277 277 277 276 276 275 275 274 274 274 274 273 272 272 271 274 278 278 279 280 281 282 282 282 281 280 279 277 279 280 281 281 282 282 282 282 282 282 282 282 282 282 281 280 279
277 277 278 278 278 278 278 277 276 276 277 277 277 279 278 277 277 277 278 278 278 278 278 277 277 277 277 278 278 278 279 280 281 281 280 280 278 278 277 276 277 276 276 276 275 274 274 273 273 273 273 272 270 270 270 269 272 275 277 279 280 280 280 281 280 280 280 281 281 280 278 277 277 277 276 276 277 277 279 280 280 280 279 279 278
278 278 278 278 279 278 277 277 275 274 275 275 275 275 276 277 277 278 278 278 278 277 277 276 276 276 276 277 277 278 278 278 278 278 278 278 278 278 277 276 276 276 275 275 274 274 273 273 273 272 271 270 268 267 268 267 267 267 269 271 272 272 274 275 273 272 273 272 273 274 274 275 275 275 275 275 275 276 275 276 277 277 278 278 277
278 278 279 279 279 278 276 275 274 272 272 272 272 272 272 275 276 278 278 278 278 277 277 276 275 276 277 277 277 274 276 277 277 277 277 276 277 277 276 275 275 275 274 274 274 273 273 272 272 271 270 268 269 268 267 267 268 267 267 267 266 266 267 267 267 268 268 268 268 271 271 270 270 270 270 271 272 272 274 275 275 275 276 276 276
278 279 279 280 278 277 275 274 272 271 270 270 268 267 267 272 275 276 278 278 277 275 275 274 274 275 274 274 275 275 275 274 272 271 271 273 275 275 275 271 268 271 274 274 273 272 271 270 271 270 269 269 267 268 269 272 269 271 268 265 264 266 266 266 269 273 271 268 269 269 269 270 271 271 271 271 271 272 272 273 272 273 274 274 274
279 279 279 277 277 275 274 272 271 270 270 269 267 266 265 266 268 275 276 276 274 273 273 272 272 272 271 272 272 272 272 272 271 271 272 272 273 275 272 271 269 275 278 277 276 269 269 269 269 268 269 269 268 268 275 276 276 276 276 275 274 274 274 271 273 278 277 273 272 271 272 272 272 272 271 271 271 271 271 271 272 273 272 272 272
279 278 277 276 275 274 272 271 269 269 268 268 267 266 265 265 267 272 275 274 273 273 271 270 271 271 271 270 270 269 269 269 269 270 271 271 272 275 278 278 277 278 278 279 278 278 277 274 271 265 267 276 275 276 277 277 278 278 278 278 279 279 279 279 279 277 275 275 272 272 272 272 272 271 271 270 270 270 270 270 270 270 271 270 270
Wind_Speed
3 5 6 8 8 9 9 9 9 9 9 10 10 11 12 11 11 11 7 9 9 8 8 8 8 6 4 6 6 4 3 4 4 1 2 4 6 6 6 5 6 7 6 6 8 7 7 7 9 6 7 8 10 11 11 11 11 10 9 8 14 12 8 6 5 9 10 7 6 7 6 5 5 5 6 5 5 4 3 4 4 5 5 6 5
6 6 3 3 6 8 8 9 9 12 11 11 11 11 10 11 12 10 8 8 8 8 7 8 7 7 6 5 4 5 5 6 4 2 3 3 5 5 6 8 7 7 5 6 8 9 8 7 7 7 10 8 9 11 11 11 11 9 10 8 2 11 8 7 6 6 4 7 8 5 5 4 3 4 5 6 4 4 3 4 4 5 5 4 3
6 10 5 7 7 8 9 10 10 12 11 13 10 11 13 12 12 10 8 9 8 9 8 7 5 3 3 4 6 5 2 3 3 2 2 3 3 2 3 6 10 8 5 7 8 8 8 10 9 7 8 9 9 10 10 9 8 11 10 11 7 2 6 1 2 3 5 4 5 7 3 3 1 2 2 4 4 4 3 5 4 5 5 4 3
13 10 9 9 9 9 9 11 10 9 9 10 11 11 10 11 13 12 11 8 8 8 7 5 6 7 7 6 6 3 3 4 3 2 3 3 3 2 1 3 8 9 7 7 7 7 10 9 8 8 8 8 12 12 9 9 9 8 9 11 11 10 5 3 2 1 5 11 5 1 3 2 3 4 3 2 2 4 4 4 3 4 4 3 3
12 7 8 9 10 12 14 10 7 10 9 11 11 12 9 13 12 12 11 11 7 7 7 7 7 7 6 6 5 7 6 4 4 2 1 1 2 3 3 3 6 8 6 6 8 8 9 8 9 8 9 7 9 9 9 10 10 8 11 11 14 12 8 3 1 0 5 4 5 6 3 2 3 3 4 2 0 3 4 3 3 3 4 3 4
12 12 9 10 12 10 9 9 11 9 10 11 11 10 9 11 11 12 10 9 10 10 9 7 7 8 8 9 9 6 6 7 8 10 6 7 7 2 2 4 6 6 4 4 7 7 9 8 8 9 8 8 8 9 10 9 9 10 10 11 11 11 11 8 4 2 2 1 1 1 2 2 6 3 3 4 1 1 1 3 2 2 2 4 3
8 9 7 8 10 9 10 12 12 11 10 9 9 10 10 11 12 13 13 11 9 9 10 8 8 9 14 12 10 11 10 7 6 6 7 3 4 4 2 3 5 6 4 3 4 6 7 7 7 8 8 8 8 10 10 10 9 9 8 9 8 8 8 9 9 5 3 2 2 1 2 2 7 8 4 4 4 3 2 3 2 1 2 3 3
8 9 9 9 9 12 14 13 10 11 9 9 10 10 13 13 13 13 12 10 10 11 12 10 13 12 11 10 9 10 11 12 10 7 3 4 5 4 3 3 4 4 4 4 4 5 6 6 6 7 8 7 8 8 10 8 7 6 6 6 7 8 8 9 8 8 10 4 1 2 3 4 4 4 5 5 4 7 4 1 2 2 3 2 3
7 8 8 9 10 11 10 10 10 9 10 11 12 11 11 11 12 12 12 11 11 12 11 12 9 11 9 8 7 5 3 4 4 4 4 4 6 4 4 3 4 4 3 3 4 5 6 7 8 7 7 8 7 6 7 10 12 12 9 8 9 7 6 8 9 9 7 7 6 2 3 4 3 3 2 3 3 4 3 4 5 4 3 2 2
6 7 6 6 7 7 7 5 8 10 9 10 10 10 10 11 13 13 13 11 11 12 11 13 13 9 10 10 10 7 6 5 4 5 5 5 5 5 4 3 3 4 3 3 4 4 5 6 6 9 9 8 7 8 9 9 10 10 10 9 9 9 5 9 10 9 7 8 6 7 5 3 4 2 3 4 4 2 4 5 3 4 4 3 0
5 6 6 6 5 6 6 9 9 8 8 10 10 11 11 12 14 15 14 12 13 15 12 13 11 11 10 11 11 11 9 8 8 5 5 4 5 5 5 4 4 4 3 4 5 5 5 5 6 7 7 8 8 9 9 9 9 8 8 9 9 10 9 7 6 8 7 7 6 7 7 8 6 5 7 3 4 3 3 2 1 1 1 1 2
5 5 7 5 3 4 5 8 9 10 9 10 10 11 12 12 13 15 15 16 15 14 14 14 11 10 9 10 11 12 12 9 11 13 12 11 11 8 5 4 4 4 3 3 5 5 5 4 4 6 6 7 8 6 7 7 8 7 7 8 8 7 8 8 9 9 8 5 6 4 4 4 3 3 6 5 6 4 4 4 3 2 1 3 1
6 6 6 6 7 7 8 7 8 9 11 12 12 12 12 12 15 17 17 15 14 14 14 14 13 13 11 10 8 8 9 9 9 11 10 10 9 9 8 6 4 4 4 5 6 6 5 5 5 6 6 6 8 8 8 9 8 7 9 9 9 10 9 10 9 10 10 9 6 2 3 3 3 2 4 6 3 4 5 4 1 0 1 1 1
7 6 7 7 7 7 7 8 9 9 10 11 11 12 11 12 14 16 16 14 12 13 13 13 13 12 10 8 7 8 8 10 7 9 9 9 10 12 12 10 8 8 8 7 7 6 4 4 6 6 6 8 8 9 9 9 9 8 9 10 10 7 7 8 9 8 6 6 4 5 3 4 3 2 4 4 5 6 5 5 4 2 0 1 1
6 8 9 9 8 8 8 9 9 9 10 11 10 11 11 12 13 15 14 13 14 14 13 15 12 11 9 8 8 7 7 7 7 7 9 9 9 10 9 10 10 8 8 8 8 7 6 6 5 6 7 7 7 8 7 7 7 7 6 8 6 5 7 7 6 9 8 7 5 4 5 4 3 2 3 3 4 6 6 5 6 5 2 2 1
4 7 8 8 7 7 7 7 8 9 10 10 11 11 12 12 12 14 14 13 13 13 12 12 12 9 10 9 8 9 8 7 7 6 6 7 9 9 8 7 7 9 7 9 9 9 8 7 6 6 6 7 7 8 8 7 8 8 6 6 6 3 7 7 6 7 7 6 6 5 5 4 2 2 2 3 2 2 4 4 4 3 3 1 1
5 7 7 7 6 7 7 7 7 8 9 11 12 12 12 11 12 13 13 11 12 13 12 11 11 11 10 9 10 10 10 11 9 9 9 8 8 8 8 9 8 8 8 8 11 8 7 8 7 6 6 6 7 7 7 7 7 7 7 7 6 4 5 7 5 6 5 5 5 5 5 5 3 3 2 2 2 2 2 2 2 4 4 3 1
5 6 6 6 6 7 7 7 8 9 10 10 11 10 10 10 12 13 13 13 14 13 12 12 12 12 11 11 10 10 10 10 9 9 7 7 8 6 4 6 8 8 9 8 9 10 9 8 7 7 6 6 6 6 7 7 7 6 6 5 5 6 7 5 5 6 6 4 5 5 5 5 3 4 3 2 2 2 2 2 2 2 2 4 3
6 7 7 7 7 8 8 9 8 8 9 9 9 9 9 9 10 12 14 13 13 11 11 9 10 9 9 10 11 10 9 9 8 8 8 9 10 9 9 8 7 7 7 7 8 9 8 7 7 7 6 6 6 6 7 6 6 7 6 6 5 5 6 6 4 5 4 5 6 6 4 5 4 4 3 2 2 2 2 2 2 2 2 2 3
6 7 7 7 7 8 9 9 9 10 9 8 9 8 9 10 10 10 9 9 10 11 11 11 10 9 9 8 9 10 10 11 10 10 9 9 9 9 8 9 8 7 8 9 9 9 9 9 7 7 7 6 6 6 6 7 6 6 6 6 5 6 7 7 5 4 4 4 6 6 5 5 4 4 4 3 3 2 2 2 2 2 2 2 2
8 7 7 6 6 7 7 7 7 5 6 6 8 10 10 9 10 11 13 11 12 12 12 11 10 10 10 12 11 10 10 9 9 9 10 10 9 9 9 7 8 8 8 9 8 9 9 8 8 7 7 7 7 7 6 7 6 7 5 6 6 6 8 5 6 6 4 5 5 6 5 4 5 5 4 3 3 3 3 2 2 2 3 3 5
7 7 6 5 5 5 5 5 5 6 7 8 8 8 9 10 10 10 11 11 12 12 12 11 10 10 12 11 11 10 10 9 10 10 10 9 9 9 9 10 9 8 9 9 9 8 8 9 9 8 7 7 7 7 7 6 7 8 7 5 6 7 7 7 6 6 5 3 5 6 5 5 4 5 4 4 4 4 4 3 3 4 4 4 5
5 7 6 5 6 7 7 7 8 9 8 8 8 9 10 10 10 10 12 12 12 12 10 10 11 11 12 11 10 10 9 10 10 9 10 8 7 9 9 11 9 9 7 8 8 8 9 8 8 8 8 7 7 7 6 7 7 8 8 7 6 7 8 8 7 6 6 5 5 5 5 5 4 5 4 4 4 4 4 4 4 3 4 5 5
6 8 5 4 6 5 5 7 8 8 9 10 10 9 9 10 11 10 13 11 10 10 10 10 10 11 11 11 11 9 10 9 9 7 9 8 6 9 10 10 9 8 8 7 8 8 8 9 8 8 8 8 8 7 7 6 8 8 8 8 7 6 6 6 7 7 6 6 6 6 5 5 5 5 4 4 3 3 4 4 4 4 4 5 5
9 6 4 5 7 7 7 8 8 8 8 8 9 10 10 11 10 12 11 9 9 9 10 10 11 12 11 11 11 10 9 9 9 7 10 8 8 8 8 9 9 8 8 8 8 6 8 8 8 9 9 8 8 8 8 8 7 6 7 7 7 6 6 6 6 6 6 6 6 6 6 6 6 5 4 4 5 6 4 4 4 4 5 4 3
7 3 5 11 10 5 6 7 7 8 9 9 10 10 10 10 11 10 10 9 9 8 10 11 11 12 12 12 11 9 10 11 11 10 10 9 9 10 8 8 9 10 8 7 8 7 8 8 8 8 8 8 8 8 8 8 8 8 8 7 6 6 5 5 5 5 6 6 6 6 6 7 7 7 6 5 5 7 5 5 5 5 5 4 5
7 5 7 8 7 8 8 8 8 8 9 9 10 10 10 10 10 10 9 9 9 9 10 11 11 12 11 12 11 10 11 10 9 9 8 9 10 10 9 9 8 9 10 9 8 7 7 9 8 9 9 9 8 8 8 9 8 8 8 8 7 6 5 4 4 5 5 5 5 5 6 7 8 7 7 8 7 6 6 7 7 6 5 5 5
4 5 9 12 9 5 7 8 9 10 9 10 9 10 10 11 11 9 9 9 8 10 11 11 11 12 12 12 11 11 11 10 9 9 9 9 10 10 9 7 8 10 9 9 11 10 9 9 10 10 10 9 9 8 8 9 9 9 8 8 7 6 6 5 5 4 4 5 5 5 6 7 8 7 7 7 7 7 6 6 5 5 5 6 6
6 10 11 11 8 8 7 8 9 8 11 11 10 10 9 8 8 9 9 11 9 10 11 11 11 12 12 10 9 9 9 9 10 10 10 10 10 9 8 7 9 9 9 11 11 11 11 10 9 10 9 8 8 9 9 9 9 8 8 8 8 8 6 6 5 5 4 4 5 6 7 7 7 7 9 7 8 7 6 6 5 6 6 6 5
9 9 7 7 9 6 5 6 8 11 12 11 10 11 11 11 10 9 10 10 10 11 11 11 12 12 10 9 10 9 10 10 10 10 10 10 10 9 9 9 10 9 9 9 10 10 10 11 11 10 9 9 8 7 9 12 10 10 9 7 7 8 7 6 6 5 4 5 6 6 6 8 10 10 10 12 12 13 12 9 6 7 7 6 6
9 9 10 9 5 4 4 7 11 11 13 12 11 10 9 10 10 10 11 10 11 12 12 13 13 10 9 9 10 10 10 11 11 10 8 10 10 9 9 8 9 8 8 7 8 9 9 9 10 10 10 8 7 7 14 15 15 13 9 8 9 7 6 6 6 7 8 7 6 6 5 7 9 9 10 13 13 14 15 15 13 12 10 10 9
11 11 10 7 7 6 8 11 12 11 11 11 11 9 9 12 11 11 10 10 12 12 13 12 11 9 10 10 10 10 10 10 10 10 9 9 8 9 9 8 8 8 8 8 9 10 9 8 7 7 8 8 7 9 16 16 15 16 11 8 7 6 6 6 6 6 7 7 6 6 6 5 6 8 7 8 12 15 16 16 16 16 16 17 15
13 12 8 7 9 10 10 10 8 9 10 11 9 9 12 11 11 11 9 11 12 12 11 11 9 9 10 9 9 10 10 9 8 9 8 9 10 10 10 10 12 10 9 10 11 11 10 9 8 9 9 7 7 12 16 16 16 16 15 10 5 6 6 5 6 8 8 8 7 7 6 6 6 11 8 7 7 8 13 16 17 17 18 19 20
10 6 8 10 10 8 7 8 9 8 9 8 10 12 10 8 9 8 11 10 11 10 10 10 9 9 9 9 10 9 8 8 8 9 9 10 11 12 11 9 8 8 9 9 8 9 9 10 10 10 9 8 8 13 17 17 16 16 15 11 5 6 5 7 8 8 8 9 9 7 8 8 7 7 7 7 7 7 7 7 8 9 10 14 20
8 9 11 11 9 6 7 7 8 8 6 6 7 8 6 7 9 10 9 10 9 10 9 9 9 9 9 8 9 10 9 8 9 9 9 9 9 8 8 7 8 9 9 10 10 10 9 9 8 8 8 8 7 13 16 16 15 15 15 11 5 4 4 6 6 7 9 9 8 7 8 8 9 9 9 9 8 8 7 6 7 9 9 9 9
10 12 10 8 7 8 8 8 3 3 4 6 7 6 8 7 7 9 8 8 9 9 9 8 9 8 9 9 10 9 9 8 9 8 8 8 8 8 9 7 6 5 3 3 3 4 6 7 6 7 6 8 6 14 14 16 15 14 14 7 5 6 6 7 8 8 9 9 8 7 9 11 11 9 8 13 12 6 6 9 10 10 9 7 8
7 6 8 6 5 5 6 3 1 3 4 5 5 6 7 7 8 7 8 8 9 9 9 9 9 9 9 10 10 10 9 9 8 9 9 9 9 8 7 6 7 6 6 6 6 5 5 6 7 7 7 7 6 11 15 14 13 13 9 5 6 5 5 8 10 10 10 8 8 8 9 9 10 8 8 12 14 11 7 10 10 11 10 8 10
4 4 5 5 5 5 4 3 3 3 3 5 7 8 8 8 8 7 8 8 9 9 8 9 9 8 9 9 9 9 10 9 9 10 10 8 7 6 7 7 9 9 9 8 7 7 6 6 7 7 7 7 5 7 12 12 12 13 9 7 6 7 8 8 10 10 8 8 10 9 9 8 8 7 8 12 13 11 8 10 9 10 12 12 11
5 5 5 3 2 1 3 5 6 6 5 6 8 9 9 8 8 8 8 9 8 8 8 9 8 8 9 9 8 9 9 10 10 9 8 9 9 8 7 6 6 5 5 5 5 6 5 5 5 6 6 5 4 5 10 10 11 12 10 6 6 6 8 9 8 10 9 7 8 7 12 11 9 9 11 11 13 12 8 9 9 8 12 14 14
2 2 3 2 2 5 4 5 6 6 6 8 8 9 8 8 7 7 7 8 8 8 7 7 8 9 9 8 8 9 9 9 9 8 8 8 7 7 8 7 6 6 6 5 5 5 6 5 5 6 6 6 5 4 5 11 12 14 14 8 6 7 10 10 9 8 9 8 7 6 8 13 16 16 16 17 17 17 12 9 7 9 12 17 9
2 3 3 4 3 4 5 5 5 6 6 6 8 8 7 7 8 8 8 7 7 7 8 8 8 8 8 8 8 9 10 8 9 9 8 8 7 8 8 8 8 6 6 6 6 5 5 5 4 4 4 4 5 5 6 11 12 14 15 13 8 9 9 9 9 9 8 8 6 5 6 10 15 17 17 18 18 19 18 11 12 12 14 14 10
2 3 4 6 6 7 7 6 4 6 6 6 7 8 7 7 6 6 5 6 7 8 8 7 8 8 7 7 7 6 7 8 8 9 9 7 6 7 8 8 6 7 8 7 6 5 5 4 3 4 4 4 4 7 6 9 12 13 14 18 11 10 9 8 8 9 7 7 7 4 6 8 14 16 17 18 19 19 21 14 14 19 20 20 15
5 4 2 6 7 7 7 6 4 4 5 4 7 8 6 6 6 5 6 7 7 8 7 7 8 8 8 8 8 9 8 8 8 8 10 9 7 8 7 7 8 7 7 7 6 5 5 4 3 3 3 4 4 5 9 7 11 14 16 18 18 11 10 8 8 10 8 7 4 4 6 10 14 15 17 18 19 21 19 17 23 24 24 25 21
2 4 4 5 8 7 7 5 4 4 4 4 8 8 5 5 4 3 6 6 7 7 7 7 7 7 7 6 7 8 8 8 9 9 9 10 8 8 7 7 7 7 6 6 5 5 4 5 5 4 3 3 3 4 5 8 8 12 13 15 15 16 14 8 6 6 4 3 3 4 4 9 12 13 16 17 19 19 15 20 21 22 22 20 12
7 6 4 5 9 9 8 6 5 5 4 4 5 9 6 6 3 4 5 7 7 7 8 7 7 7 7 7 7 6 7 7 8 9 9 8 8 8 7 5 6 5 6 6 5 5 5 5 4 5 4 4 3 4 3 6 10 11 13 14 15 15 15 15 10 7 4 2 3 7 10 13 14 15 16 16 15 16 18 19 20 20 18 9 6
6 6 6 8 9 8 8 9 6 5 5 4 4 7 9 5 5 5 5 7 8 8 8 8 7 7 7 8 8 7 7 7 7 5 6 6 8 7 6 5 5 5 5 5 5 5 5 5 5 4 4 4 3 3 3 3 4 4 7 10 11 11 12 13 12 9 10 13 12 11 10 10 8 8 7 6 7 8 14 17 18 17 9 7 6
8 7 9 10 10 10 9 8 7 3 5 5 6 5 6 6 7 7 8 8 8 9 8 8 8 8 7 8 8 7 6 6 5 5 5 5 5 5 6 6 5 6 5 5 5 6 5 4 4 3 3 3 2 2 2 2 2 2 3 2 2 3 6 6 5 4 5 3 5 5 4 6 6 8 8 8 9 9 8 7 5 6 5 5 6
6 7 7 9 10 11 10 9 8 5 5 6 6 6 4 5 6 7 8 9 9 9 9 8 8 7 7 7 7 9 9 6 5 6 5 5 4 5 6 7 7 7 7 6 5 5 6 6 5 4 3 3 3 3 3 4 3 2 2 1 1 2 2 1 2 3 3 1 1 2 3 1 1 1 2 1 2 2 4 5 4 4 5 5 6
10 7 7 9 10 10 9 10 8 4 6 6 6 4 4 5 6 7 8 10 9 8 8 8 7 7 7 6 7 7 7 7 6 6 5 3 5 5 5 3 1 1 5 7 6 5 4 4 5 6 5 3 3 3 5 5 5 6 5 3 2 3 2 2 5 7 3 1 0 0 1 3 3 4 2 2 2 3 3 4 3 4 4 4 5
6 7 7 8 7 10 11 10 7 5 6 7 6 4 3 2 2 6 8 11 10 9 9 7 7 7 7 7 7 7 7 7 8 7 8 7 7 8 5 6 2 4 7 6 7 4 6 6 5 3 3 4 5 4 4 7 7 7 8 8 7 8 8 6 7 11 7 3 3 3 4 4 5 4 5 5 4 4 5 5 4 4 4 4 4
9 10 9 9 8 8 10 10 8 6 6 6 6 4 3 2 2 4 8 10 10 9 7 7 7 7 7 8 7 7 7 7 7 8 7 9 8 8 10 9 8 8 8 10 9 9 10 8 6 3 1 5 5 5 6 5 5 6 7 8 10 10 10 11 13 8 5 5 5 5 4 3 3 2 2 3 3 4 4 5 5 5 4 4 4
Wind_Direction
253 210 216 200 190 188 183 181 187 186 191 185 179 185 184 181 179 182 170 164 162 163 167 166 161 151 158 169 141 141 155 118 98 190 102 113 130 147 138 140 115 118 139 143 137 127 132 135 143 141 152 143 140 145 146 141 140 138 131 130 126 120 117 124 133 120 114 82 77 73 68 55 60 57 63 60 56 57 58 71 65 69 63 62 56
259 256 230 191 191 186 181 186 179 183 202 188 188 183 178 178 183 178 167 173 177 174 172 176 175 179 168 166 133 150 157 149 138 190 136 91 124 139 161 144 132 121 133 156 132 134 137 144 153 150 147 143 139 140 140 141 140 140 135 116 98 130 137 164 167 115 97 139 135 114 80 74 68 56 62 59 61 60 63 70 69 72 69 69 67
244 240 210 200 192 193 189 195 201 205 185 191 185 176 183 182 186 179 171 178 181 176 176 178 163 110 127 143 145 132 29 35 58 94 109 100 81 126 214 170 137 132 158 161 138 145 144 140 156 159 146 134 132 142 144 147 154 151 153 137 131 20 106 21 185 328 127 111 99 106 146 124 167 99 89 71 63 62 65 71 69 75 72 71 74
253 236 218 201 199 195 199 204 202 191 187 192 188 185 183 187 189 185 181 177 175 178 170 124 84 90 67 92 73 62 139 106 95 103 80 94 123 145 191 170 124 130 156 154 144 147 146 155 152 157 155 159 152 149 154 150 155 153 147 143 135 134 147 158 352 266 161 142 150 167 156 147 144 208 158 119 88 68 60 76 73 81 85 82 73
256 248 213 200 202 208 203 201 176 195 198 194 189 189 187 188 185 180 180 179 169 156 138 129 115 93 98 81 86 93 77 95 117 95 103 144 141 166 174 136 108 123 143 163 154 152 151 155 161 163 157 164 154 143 157 163 162 158 153 148 158 146 147 125 104 245 203 338 138 129 105 206 218 136 133 154 94 137 74 68 80 90 95 87 85
245 249 227 208 211 212 205 194 196 203 202 199 193 189 180 182 179 178 178 176 174 159 147 146 146 137 142 151 163 159 152 166 178 173 176 185 183 153 126 106 102 112 133 155 138 154 155 167 166 161 158 156 164 152 140 137 158 160 170 159 157 160 142 129 126 15 12 40 338 358 207 174 153 161 152 176 110 343 80 92 77 86 90 100 92
248 252 245 214 217 209 208 202 201 201 205 182 184 186 178 175 180 181 184 182 170 158 160 159 150 169 176 180 177 175 171 193 174 175 177 149 108 136 122 103 99 110 120 148 136 144 145 164 169 172 158 147 142 141 153 165 165 163 158 164 151 128 142 138 155 153 136 65 37 53 65 16 132 137 195 102 167 186 210 145 123 136 109 100 99
233 235 232 228 215 206 211 207 198 204 182 176 183 182 183 179 179 181 181 176 175 170 173 174 175 180 185 185 180 183 184 180 181 168 120 124 121 133 142 108 100 102 121 119 130 150 156 159 168 159 152 146 150 164 157 152 141 126 146 129 131 152 161 150 154 170 164 147 101 96 73 69 56 51 114 166 143 159 181 170 141 181 141 107 110
225 237 233 224 220 219 216 206 205 185 178 183 185 183 180 177 178 180 180 174 176 174 176 183 180 181 181 177 178 181 133 119 120 103 130 140 127 130 129 125 104 93 98 119 132 150 163 168 164 154 148 153 162 149 147 151 155 150 153 150 161 158 162 154 147 172 159 155 142 90 86 69 61 51 94 74 135 143 149 181 162 168 169 155 130
259 249 254 242 234 230 215 195 175 190 184 184 179 175 178 176 180 181 182 179 177 178 180 185 189 181 186 187 179 159 126 113 119 134 146 155 138 134 134 149 129 130 135 129 136 159 152 170 177 159 156 155 157 147 140 146 148 152 156 154 149 149 148 166 165 156 156 151 162 145 137 129 89 91 57 92 49 36 162 177 184 164 175 149 192
269 266 260 257 266 224 176 189 186 178 181 179 179 180 179 180 182 186 183 178 179 184 181 186 185 187 189 186 178 161 148 144 146 148 147 156 146 149 161 153 147 147 149 155 153 150 163 189 178 157 149 152 145 148 162 157 155 150 145 140 152 156 156 159 131 137 143 147 155 161 157 167 165 169 175 170 139 144 120 134 137 204 156 224 140
279 281 270 266 254 190 177 188 180 181 179 185 183 181 181 182 183 188 188 188 187 185 186 189 186 188 189 184 179 175 159 164 171 171 177 173 173 168 156 142 153 133 162 155 168 153 165 174 155 145 153 153 155 152 147 150 144 138 141 147 146 151 140 147 143 142 150 137 144 154 156 148 135 148 158 142 152 162 149 141 145 123 264 247 338
279 266 260 252 221 202 195 191 176 183 190 187 186 184 183 184 185 189 195 188 187 185 188 188 189 192 189 186 179 166 170 165 170 173 175 175 171 171 161 163 149 162 184 178 176 173 166 164 161 162 159 162 145 145 141 141 146 144 142 140 146 162 167 158 155 156 151 152 152 157 144 137 103 76 120 126 85 114 122 123 99 130 208 177 71
254 254 256 247 229 217 201 188 189 189 191 191 188 187 188 189 187 192 194 186 183 185 187 189 194 192 188 181 170 165 176 177 175 171 179 178 175 180 180 169 170 178 169 192 167 165 178 181 159 155 158 147 151 143 143 146 145 144 145 146 161 152 141 147 127 123 113 112 130 125 117 110 105 111 122 126 139 132 142 146 138 152 206 237 326
232 246 246 246 238 215 203 195 192 191 190 191 191 191 189 192 191 194 190 186 186 189 187 191 191 190 186 183 172 169 179 176 172 180 171 172 180 183 189 171 175 172 176 163 152 165 165 162 165 160 153 150 142 139 135 136 128 123 135 129 119 134 129 126 126 130 129 132 117 120 120 104 114 112 125 124 135 144 138 152 153 151 165 185 235
243 249 259 255 241 219 208 203 198 191 191 193 194 192 193 195 192 196 195 186 187 186 191 191 191 185 185 179 177 176 181 182 179 177 187 181 173 175 182 172 173 161 156 153 155 158 161 158 153 152 144 143 144 143 141 141 136 130 122 131 122 120 132 124 126 114 111 116 116 121 108 106 98 111 102 117 117 125 132 140 147 153 163 205 157
242 244 246 252 241 226 214 207 201 196 195 198 197 195 196 190 191 195 195 188 192 191 190 188 186 184 187 182 178 179 182 186 182 179 180 181 180 187 183 181 168 151 149 161 150 153 154 150 150 150 153 146 141 144 139 130 127 130 132 134 128 145 132 117 113 113 113 122 121 127 115 121 115 106 94 89 88 87 110 122 139 150 154 161 197
241 246 248 237 226 221 216 211 204 201 199 199 202 198 198 196 191 192 193 190 194 193 192 190 187 188 185 187 184 182 184 187 184 182 175 165 174 173 163 147 167 162 159 159 156 151 148 155 151 151 147 148 143 136 128 125 125 122 124 118 128 136 112 98 100 114 126 127 121 117 125 117 116 112 107 104 109 115 127 132 121 111 147 178 191
269 254 244 229 216 214 211 210 210 208 204 203 200 196 198 200 198 196 197 193 189 190 190 190 190 189 186 186 183 182 183 185 184 179 176 179 179 174 172 177 135 138 143 153 156 155 153 148 153 148 148 145 138 135 129 128 129 125 128 125 134 128 118 113 117 122 134 137 135 127 130 118 124 112 111 109 101 115 117 115 104 109 119 161 171
257 255 244 227 216 211 206 203 204 204 200 200 197 195 201 199 195 198 198 188 183 189 187 189 188 185 182 181 189 187 184 183 180 174 179 184 179 176 167 160 169 151 160 160 164 159 154 150 152 149 146 143 140 132 133 129 129 128 133 130 135 134 122 125 126 127 138 145 136 132 138 131 131 121 122 129 126 105 115 122 125 134 141 165 166
239 237 241 234 223 214 212 211 211 204 201 194 197 200 200 196 198 196 194 189 189 189 186 191 179 187 180 187 187 184 187 184 178 180 181 182 175 176 171 170 143 169 152 162 165 162 151 147 145 150 152 148 145 136 131 130 126 125 123 125 131 133 123 125 128 135 146 147 140 133 135 126 128 129 137 142 137 132 122 115 130 163 180 178 185
233 236 228 232 224 218 218 209 206 193 198 200 200 199 203 204 201 195 196 196 190 191 191 184 185 185 188 188 187 188 184 180 181 179 182 179 176 177 166 148 167 160 165 162 164 155 148 147 149 148 150 146 141 135 135 138 135 130 126 137 138 137 130 132 141 145 150 149 144 138 135 132 142 130 148 154 150 144 143 150 177 190 200 192 205
249 257 241 226 206 194 193 199 204 204 203 200 199 202 205 206 202 203 199 201 192 189 185 183 184 187 190 188 184 184 179 176 179 181 183 177 173 158 160 157 159 158 163 162 156 154 148 144 145 147 147 145 145 139 141 142 144 142 141 151 155 149 145 148 156 162 158 149 147 142 137 138 139 147 164 157 145 150 155 173 188 199 211 211 207
277 260 264 246 226 178 172 198 208 210 207 205 204 204 206 207 206 204 208 198 190 184 181 182 184 189 186 182 186 180 174 175 178 177 183 179 168 162 156 156 152 148 155 149 150 155 144 148 145 149 147 143 143 143 143 147 146 149 150 151 154 153 151 155 156 158 161 163 157 140 153 153 159 161 165 159 160 161 174 180 193 208 221 223 216
280 282 283 272 233 181 205 208 212 211 211 210 208 206 205 209 205 208 209 197 189 180 179 183 183 186 186 187 187 179 179 179 182 175 184 171 162 155 161 157 148 155 155 147 148 155 151 153 158 155 152 152 152 150 148 147 148 149 147 146 155 158 159 156 157 159 161 165 164 166 159 163 168 164 169 178 175 183 183 185 202 205 218 227 219
245 263 266 243 231 192 214 217 216 215 212 212 213 211 210 209 210 207 204 193 190 177 184 181 185 187 189 190 186 179 184 185 185 183 182 176 166 159 161 156 160 153 151 158 154 162 167 158 154 154 150 147 149 154 154 152 149 145 144 148 152 154 150 149 151 161 166 176 171 168 169 171 175 177 184 177 180 190 179 197 202 211 212 219 226
226 219 236 257 248 216 218 220 218 218 214 215 213 212 211 210 210 202 200 193 186 180 184 187 188 191 190 193 185 182 182 183 183 182 176 174 163 158 162 166 165 158 160 158 162 160 168 164 157 155 157 157 152 153 153 150 154 155 149 152 155 151 141 138 148 162 173 175 177 174 176 184 186 188 179 186 182 185 192 204 204 204 204 209 225
247 234 232 234 238 228 218 219 217 221 217 221 217 215 210 207 207 197 193 189 184 183 189 191 189 195 197 193 188 181 180 179 180 177 177 177 155 162 169 160 163 166 166 164 165 170 169 165 163 165 165 161 156 155 160 159 158 159 156 152 151 148 148 158 164 172 178 184 182 187 193 196 196 191 189 184 176 189 184 207 204 194 200 208 221
218 230 230 234 236 232 220 215 221 218 222 221 217 217 213 214 208 195 190 196 180 185 192 191 192 199 199 187 182 180 173 172 175 177 175 173 159 160 157 157 170 173 174 171 168 168 162 164 166 166 161 163 164 167 166 163 157 153 146 146 152 159 163 165 167 177 187 191 195 200 205 206 208 206 203 190 194 185 170 196 204 185 199 203 217
262 262 250 231 235 237 226 214 221 219 223 220 216 214 209 207 205 193 192 190 173 191 191 193 199 201 189 178 178 177 174 169 174 180 177 170 164 161 164 166 174 176 174 170 166 167 172 169 163 165 166 166 172 168 166 159 158 158 160 157 156 160 165 162 165 175 192 203 211 208 212 209 209 209 206 205 204 204 205 202 188 180 189 196 205
263 265 266 269 261 227 219 223 230 222 220 218 217 211 204 208 203 194 195 184 180 190 194 196 201 192 181 174 174 179 173 175 177 173 169 166 163 163 164 166 168 167 167 166 162 165 173 176 173 168 167 171 168 165 161 164 164 156 153 162 169 165 167 168 184 187 196 204 211 212 210 209 211 212 214 214 215 214 215 217 216 204 196 188 183
258 261 266 278 286 271 241 231 231 226 218 215 214 202 196 210 196 197 190 175 186 192 195 199 195 181 179 176 175 172 176 177 169 171 166 163 157 158 162 164 163 163 168 165 169 174 175 172 170 169 172 170 167 162 168 167 164 163 164 166 171 171 179 179 185 194 209 211 206 201 208 202 216 211 201 210 220 224 224 224 225 222 216 215 211
252 258 269 266 257 252 247 243 235 227 219 218 199 189 207 203 192 195 169 181 190 191 193 193 187 179 179 174 170 171 174 171 172 163 158 156 159 164 167 171 179 175 162 171 177 169 171 166 168 171 172 168 164 169 171 170 169 170 173 166 169 174 176 189 190 208 215 215 214 204 207 215 219 219 213 211 210 224 232 233 234 234 233 226 225
255 257 253 258 257 256 249 242 240 233 217 205 189 199 204 189 184 170 178 184 183 188 187 187 177 178 172 170 167 165 167 165 160 159 161 168 170 176 178 176 166 164 172 173 171 170 166 170 172 173 170 167 169 175 174 174 172 175 176 168 175 178 190 202 205 213 217 220 217 202 207 221 212 208 209 206 210 214 217 227 236 235 234 234 234
243 250 249 245 251 263 259 257 247 233 212 181 195 195 170 167 170 172 177 173 180 177 181 178 175 171 165 165 160 160 160 159 163 166 169 168 169 167 167 168 169 170 172 176 175 174 175 172 170 166 163 168 174 179 174 172 174 179 179 173 172 179 192 215 216 216 224 225 222 217 220 230 228 211 211 206 203 212 212 224 233 239 239 239 236
222 229 243 245 240 235 240 250 250 191 194 188 191 168 162 168 156 164 164 167 166 172 174 167 168 166 165 161 156 157 156 158 161 159 158 161 165 168 167 160 157 156 139 126 125 145 161 164 164 162 158 166 171 178 174 177 180 181 181 181 176 185 209 221 228 223 226 229 224 215 216 232 235 230 216 211 214 201 213 229 234 243 245 243 242
232 212 236 235 241 248 254 264 233 181 168 174 145 145 143 138 149 152 152 157 161 168 170 167 166 164 163 161 158 154 155 156 156 155 161 164 163 158 150 143 145 148 150 155 160 164 157 159 163 167 167 170 171 184 181 180 180 180 181 193 197 199 214 225 233 231 233 230 225 217 223 232 239 238 224 217 219 205 215 226 235 245 249 252 251
230 258 267 267 262 250 249 199 145 121 139 138 137 136 133 137 141 144 148 156 163 172 167 164 166 164 159 157 155 152 153 157 158 165 167 164 155 145 152 156 158 160 169 175 167 157 158 160 162 169 172 168 172 183 182 182 183 188 190 199 211 214 227 230 239 240 234 235 229 213 219 231 237 242 229 228 226 217 223 227 230 245 256 258 258
218 215 232 254 281 157 125 107 117 119 133 133 132 131 132 136 145 150 152 158 170 165 162 163 159 154 152 151 152 154 157 160 164 163 158 155 158 154 143 143 146 147 147 134 144 145 144 152 161 162 152 154 157 174 186 189 194 202 203 213 217 229 235 237 238 245 239 234 240 225 223 227 236 243 242 237 233 227 230 233 224 233 252 257 259
240 252 233 199 158 109 96 113 126 139 136 133 131 129 132 139 144 145 152 166 171 165 157 144 145 149 149 152 155 157 158 157 154 145 145 145 135 131 144 146 145 142 140 143 142 144 149 155 148 153 170 171 168 166 184 196 202 209 212 214 226 229 238 240 240 245 250 241 230 224 224 232 239 242 241 237 233 229 226 231 223 232 246 255 260
161 150 125 108 94 108 123 128 131 131 130 128 125 122 129 137 144 150 172 173 152 138 142 143 143 145 149 153 155 157 154 152 147 145 138 136 142 142 141 144 143 139 138 141 147 144 142 140 146 154 162 169 168 174 191 201 208 214 219 219 226 231 238 244 245 246 244 251 249 215 175 221 233 240 241 241 239 236 233 232 232 237 239 251 263
104 126 125 114 103 100 96 86 96 120 122 124 120 120 131 140 148 166 162 136 135 136 134 136 142 145 146 146 144 137 136 134 131 132 134 134 132 135 140 140 138 140 142 140 138 139 143 151 151 166 175 180 178 181 186 210 214 220 223 225 226 231 229 239 251 252 250 252 250 240 204 214 229 237 241 244 246 245 245 244 243 243 247 249 252
129 110 115 124 111 103 100 106 99 103 112 117 118 123 135 145 157 166 143 137 133 133 134 136 139 141 145 143 141 138 134 133 135 137 134 132 133 130 130 132 133 136 141 145 153 152 156 169 163 171 180 186 188 196 199 205 220 225 228 232 235 237 233 229 237 252 251 256 255 230 231 229 235 241 245 248 251 256 258 256 259 263 266 270 272
78 108 121 111 105 103 99 90 83 87 97 116 125 124 132 135 146 130 125 120 124 126 127 129 132 134 131 132 136 133 134 137 138 138 137 138 141 140 140 145 143 146 148 153 153 150 155 170 187 192 186 184 182 178 209 203 205 223 229 233 238 243 245 243 237 252 260 251 255 242 239 242 248 253 260 264 266 267 266 267 269 270 273 274 272
128 121 112 113 115 115 107 91 81 85 87 101 124 127 125 124 138 123 131 127 126 125 124 125 126 129 126 123 118 119 124 128 133 136 134 136 134 137 136 137 137 139 149 156 161 163 175 184 181 198 193 182 174 183 202 216 213 218 229 234 240 244 248 253 258 264 250 223 235 253 258 269 273 278 284 284 281 279 278 277 279 279 281 285 283
111 108 114 121 112 106 106 103 75 63 78 87 95 124 128 143 126 119 118 122 120 118 116 119 118 117 121 122 115 109 112 117 120 119 127 137 143 147 142 144 146 150 156 158 158 167 178 180 193 194 187 172 163 170 194 217 237 241 240 244 249 254 258 260 266 273 278 284 294 315 337 346 344 338 331 319 311 306 300 293 289 285 277 269 259
133 143 135 127 123 119 117 111 98 56 78 77 87 74 110 127 126 128 124 122 118 115 116 116 119 118 119 121 120 123 116 110 109 103 110 118 128 134 135 143 154 157 164 168 166 172 174 175 189 183 167 154 158 175 189 216 213 218 242 266 296 306 316 329 331 338 344 345 332 326 317 320 334 323 316 307 302 302 301 299 302 298 292 284 280
135 143 140 126 127 130 126 118 110 96 88 89 85 82 82 111 124 128 129 124 124 131 132 131 130 130 130 131 126 125 123 114 112 118 120 115 118 137 146 162 172 170 165 172 167 172 175 182 180 160 154 153 182 188 206 206 210 199 221 214 282 296 289 270 293 287 268 298 320 328 323 322 293 301 295 270 266 265 277 295 295 295 288 280 279
139 146 142 138 135 126 123 118 116 112 104 97 90 73 53 91 127 134 132 126 124 121 120 120 123 120 120 120 127 127 125 120 107 83 61 83 142 150 140 102 15 121 163 163 176 174 174 172 161 158 159 177 183 204 230 199 195 190 183 171 220 232 227 233 232 245 255 284 88 335 302 301 298 293 294 292 296 298 303 300 292 290 287 278 274
123 115 116 109 114 125 126 120 116 118 113 109 100 83 47 27 103 137 131 128 128 123 119 122 124 123 126 124 122 122 122 124 123 119 108 82 82 107 130 130 145 139 133 140 141 167 177 158 151 179 162 154 183 210 199 174 188 193 203 196 203 206 205 205 226 245 238 225 243 246 258 264 273 282 296 308 314 319 313 311 308 304 302 295 280
136 126 123 124 125 127 120 119 123 124 115 113 103 85 69 30 66 139 133 133 131 123 122 126 129 134 141 136 132 129 131 124 126 123 118 114 101 80 93 107 118 127 126 118 114 123 137 144 138 143 238 146 159 161 159 164 179 189 205 215 224 231 239 241 238 238 247 238 226 239 256 264 280 296 322 344 352 349 348 354 349 350 349 335 329